Regional Weather Roundup
Issued by NWS

Home | Current Version | Previous Version | Graphics & Text | Print | Product List | Glossary Off
Versions: 1 2 3 4 5 6 7 8 9 10 11 12 13 14 15 16 17 18 19 20 21 22 23 24 25 26 27 28 29 30 31 32 33 34 35 36 37 38 39 40 41 42 43 44 45 46 47 48 49 50

000
ASUS43 KDMX 280207
RWRIA

WEATHER ROUNDUP FOR IOWA
NATIONAL WEATHER SERVICE DES MOINES IA
900 PM CDT WED MAY 27 2015

NOTE: "FAIR" INDICATES FEW OR NO CLOUDS BELOW 12,000 FEET WITH NO
SIGNIFICANT WEATHER AND/OR OBSTRUCTIONS TO VISIBILITY.

* - THESE STATIONS ARE NOT NWS STATIONS...THUS NOT UNDER NWS
QUALITY CONTROL.  THEY ALSO DO NOT REPORT WEATHER SUCH
AS PRECIPITATION OR FOG.

IAZ001>003-012>014-020>022-031>034-043>046-280300-
   NORTHWEST IOWA

CITY           SKY/WX    TMP DP  RH WIND       PRES   REMARKS
CARROLL *      CLEAR     72  59  64 S7        30.04R
CHEROKEE *     PTCLDY    71  53  51 S6        30.02R
DENISON *      CLEAR     70  63  78 SE5       30.02R
LE MARS *      PTCLDY    75  52  43 S7        30.02R
ORANGE CITY *  CLEAR     72  52  49 CALM      30.03R
SHELDON *      CLEAR     73  73 100 S6        30.01R
SIOUX CITY     MOCLDY    74  53  48 S7        30.01R
SPENCER        CLEAR     72  55  55 S6        30.02R
STORM LAKE *   CLEAR     70  55  60 S7        30.05R
$$

IAZ055>058-069>071-079>083-090>094-280300-
   SOUTHWEST IOWA

CITY           SKY/WX    TMP DP  RH WIND       PRES   REMARKS
ATLANTIC *     CLEAR     72  59  64 S6        30.05R
AUDUBON *      CLEAR     70  57  64 S3        30.07R
CLARINDA *     PTCLDY    70  59  68 CALM      30.07S
COUNCIL BLFS * PTCLDY    73  54  49 S6        30.05R
CRESTON *      MOCLDY    70  59  68 S8        30.07S
HARLAN  *      MOCLDY    72  57  60 S6        30.08R
LAMONI         MOCLDY    76  59  55 S6        30.08R
RED OAK *      PTCLDY    72  55  56 CALM      30.05S
SHENANDOAH *   PTCLDY    70  55  60 SE7       30.05S
$$

IAZ047>049-059>061-072>074-084-280300-
   CENTRAL IOWA

CITY           SKY/WX    TMP DP  RH WIND       PRES   REMARKS
AMES           CLEAR     68  59  73 S5        30.04R
ANKENY *       PTCLDY    70  63  78 CALM      30.04R
CHARITON *     PTCLDY    72  63  73 S5        30.07R
DES MOINES     PTCLDY    75  58  55 S6        30.04S
GRINNELL*      CLEAR     72  57  60 S3        30.06S
KNOXVILLE *    PTCLDY    72  57  60 S5        30.05R
MARSHALLTOWN   CLEAR     70  58  65 S7        30.05R
PELLA *        PTCLDY    70  62  76 CALM      30.07R
PERRY *          N/A     72  63  73 S6        30.04S
$$

IAZ004>006-015-016-023>025-035-036-280300-
   NORTH CENTRAL IOWA

CITY           SKY/WX    TMP DP  RH WIND       PRES   REMARKS
ALGONA *       CLEAR     72 -35   1 S7        30.02R
CLARION *      CLEAR     72  59  64 S8        30.03R
ESTHERVILLE    CLOUDY    73  56  54 SW5       30.01R
FORT DODGE *   CLEAR     70  55  60 S5        30.04R
MASON CITY     CLEAR     71  55  56 S6        30.04R
FOREST CITY *    N/A     66  57  72 CALM      30.02R
IOWA FALLS *     N/A     72  59  64 S6        30.06R
$$

IAZ007>011-017>019-026>030-037>042-050>054-066-280300-
   NORTHEAST IOWA

CITY           SKY/WX    TMP DP  RH WIND       PRES   REMARKS
CEDAR RAPIDS   CLEAR     70  61  73 S3        30.05R
CHARLES CITY * CLEAR     72  61  68 S6        30.03S
CLINTON *      CLEAR     72  57  60 S5        30.09R
DECORAH *      CLEAR     72  61  68 S5        30.03S
DUBUQUE        CLEAR     68  60  75 S3        30.07R
MONTICELLO *   CLEAR     70  63  78 S5        30.05S
OELWEIN *      CLEAR     70  61  73 S6        30.05S
WATERLOO       CLEAR     69  58  67 S7        30.03R
$$

IAZ064-065-067-068-078-280300-
   EAST CENTRAL IOWA

CITY           SKY/WX    TMP DP  RH WIND       PRES   REMARKS
DAVENPORT      CLEAR     70  60  70 S5        30.07R
IOWA CITY      CLEAR     70  60  70 CALM      30.07R
MT. PLEASANT * PTCLDY    70  58  67 CALM      30.08R
MUSCATINE *    CLEAR     70  61  73 S3        30.07R
QUAD CITIES    CLEAR     68  59  73 CALM      30.06R
$$

IAZ062-063-075>077-085>089-095>099-280300-
   SOUTHEAST IOWA

CITY           SKY/WX    TMP DP  RH WIND       PRES   REMARKS
BURLINGTON     CLEAR     69  61  75 CALM      30.07S
FAIRFIELD *    PTCLDY    70  57  64 CALM      30.07R
FORT MADISON * PTCLDY    66  61  82 CALM      30.10R
KEOKUK *       PTCLDY    72  59  64 S5        30.08R
OSKALOOSA *      N/A     71  60  69 S6        30.07R
CENTERVILLE *    N/A     70  70 100 SE3       30.09S
OTTUMWA        PTCLDY    68  61  78 S3        30.06S
WASHINGTON *   CLEAR     72  61  68 S6        30.08R
$$

ABBREVIATIONS USED IN REMARKS
   TC - TEMPERATURES IN CELSIUS
  WCI - WIND CHILL INDEX
   HX - HEAT INDEX
  VSB - VISIBILITY
$$



USA.gov is the U.S. government's official web portal to all federal, state and local government web resources and services.